LPA3412 LTAC-UGTB

Flight info

Callsign LPA3412
Flight time N/A
Altitude 35000
Route GOBIT UL614 JUPNE UT54 SIV DCT GONPU UN61 NOLGA N61 LAGAS
Aircraft A320/M-SDE3FGHIRWY/LB1

Departure

Time 2026-04-29 16:05
Airport Esenboğa International Airport (LTAC)

Arrival

Time N/A
Airport Tbilisi International Airport (UGTB)
Time Latitude Longitude Altitude Speed Heading
2026-04-29 15:58 40.11788 32.99651 3113 ft 0 kts 267°
2026-04-29 16:00 40.11786 32.99608 3113 ft 11 kts 267°
2026-04-29 16:00 40.11779 32.99493 3113 ft 14 kts 263°
2026-04-29 16:01 40.11759 32.99357 3113 ft 16 kts 256°
2026-04-29 16:01 40.11722 32.99220 3113 ft 16 kts 245°
2026-04-29 16:01 40.11668 32.99089 3113 ft 17 kts 237°
2026-04-29 16:01 40.11595 32.98967 3113 ft 15 kts 225°
2026-04-29 16:02 40.11517 32.98865 3113 ft 16 kts 217°
2026-04-29 16:02 40.11423 32.98774 3113 ft 17 kts 216°
2026-04-29 16:02 40.11322 32.98677 3110 ft 20 kts 216°
2026-04-29 16:02 40.11269 32.98603 3110 ft 8 kts 268°
2026-04-29 16:03 40.11317 32.98500 3109 ft 19 kts 305°
2026-04-29 16:03 40.11390 32.98370 3109 ft 18 kts 306°
2026-04-29 16:03 40.11463 32.98241 3109 ft 14 kts 307°
2026-04-29 16:03 40.11503 32.98178 3109 ft 9 kts 320°
2026-04-29 16:04 40.11584 32.98180 3109 ft 13 kts 34°
2026-04-29 16:04 40.11588 32.98184 3110 ft 0 kts 34°
2026-04-29 16:04 40.11604 32.98198 3110 ft 11 kts 34°
2026-04-29 16:05 40.11857 32.98440 3113 ft 87 kts 36°
2026-04-29 16:05 40.12547 32.99098 3119 ft 155 kts 36°
2026-04-29 16:05 40.13504 33.00043 3540 ft 177 kts 36°
2026-04-29 16:05 40.14457 33.01037 4356 ft 180 kts 37°
2026-04-29 16:06 40.15433 33.02103 5069 ft 186 kts 38°
2026-04-29 16:06 40.16450 33.03194 5400 ft 201 kts 37°
2026-04-29 16:06 40.17611 33.04400 5623 ft 225 kts 37°
2026-04-29 16:06 40.18901 33.05731 5963 ft 246 kts 37°
2026-04-29 16:07 40.20231 33.07200 6614 ft 254 kts 49°
2026-04-29 16:07 40.20950 33.09306 7330 ft 261 kts 84°
2026-04-29 16:07 40.20638 33.11705 7774 ft 281 kts 114°
2026-04-29 16:07 40.20335 33.12482 7968 ft 286 kts 120°
2026-04-29 16:08 40.19743 33.13702 8307 ft 291 kts 122°
2026-04-29 16:08 40.18523 33.15852 9113 ft 297 kts 130°
2026-04-29 16:08 40.17148 33.17884 9923 ft 300 kts 133°
2026-04-29 16:09 40.15715 33.19929 10459 ft 315 kts 133°
2026-04-29 16:09 40.14205 33.22143 10694 ft 338 kts 131°
2026-04-29 16:09 40.12628 33.24556 10874 ft 361 kts 131°
2026-04-29 16:09 40.10987 33.27168 11070 ft 381 kts 130°
2026-04-29 16:10 40.10204 33.28365 11878 ft 347 kts 133°
2026-04-29 16:10 40.08654 33.30725 13158 ft 346 kts 131°
2026-04-29 16:10 40.07096 33.33282 13068 ft 375 kts 129°
2026-04-29 16:11 40.05470 33.36075 13033 ft 394 kts 129°
2026-04-29 16:11 40.04133 33.38130 14857 ft 313 kts 136°
2026-04-29 16:11 40.02691 33.40118 16482 ft 308 kts 134°
2026-04-29 16:12 40.01288 33.42378 16556 ft 331 kts 128°
2026-04-29 16:12 39.99991 33.44914 16677 ft 351 kts 123°
2026-04-29 16:12 39.98691 33.47714 16794 ft 371 kts 122°
2026-04-29 16:12 39.97331 33.50669 16921 ft 389 kts 122°
2026-04-29 16:13 39.95872 33.53733 17050 ft 406 kts 123°
2026-04-29 16:13 39.94308 33.56880 17201 ft 421 kts 124°
2026-04-29 16:13 39.92664 33.60079 17591 ft 428 kts 126°
2026-04-29 16:13 39.90979 33.63295 18064 ft 432 kts 126°
2026-04-29 16:14 39.89267 33.66532 18558 ft 435 kts 126°
2026-04-29 16:14 39.87541 33.69793 19029 ft 439 kts 126°
2026-04-29 16:14 39.85803 33.73085 19479 ft 442 kts 126°
2026-04-29 16:14 39.84056 33.76403 19914 ft 446 kts 126°
2026-04-29 16:15 39.82298 33.79749 20331 ft 450 kts 126°
2026-04-29 16:15 39.80529 33.83123 20722 ft 453 kts 126°
2026-04-29 16:15 39.78753 33.86535 21114 ft 457 kts 123°
2026-04-29 16:15 39.77256 33.90137 21487 ft 461 kts 114°
2026-04-29 16:16 39.76106 33.94044 21856 ft 464 kts 110°
2026-04-29 16:16 39.74996 33.97997 22211 ft 467 kts 110°
2026-04-29 16:16 39.73869 34.01969 22553 ft 470 kts 110°
2026-04-29 16:16 39.72734 34.05957 22894 ft 473 kts 110°
2026-04-29 16:17 39.71591 34.09973 23239 ft 475 kts 110°
2026-04-29 16:17 39.70445 34.14005 23560 ft 477 kts 110°
2026-04-29 16:17 39.69289 34.18056 23869 ft 480 kts 110°
2026-04-29 16:17 39.68125 34.22133 24167 ft 483 kts 110°
2026-04-29 16:18 39.67729 34.23518 24268 ft 483 kts 110°
2026-04-29 16:18 39.66923 34.26427 24474 ft 485 kts 109°
2026-04-29 16:18 39.65768 34.30546 24769 ft 487 kts 110°
2026-04-29 16:19 39.64599 34.34677 25058 ft 488 kts 108°
2026-04-29 16:19 39.63735 34.38947 25329 ft 490 kts 99°
2026-04-29 16:19 39.63355 34.43332 25597 ft 490 kts 90°
2026-04-29 16:19 39.63481 34.47745 25855 ft 489 kts 81°
2026-04-29 16:20 39.63901 34.52127 26119 ft 491 kts 81°
2026-04-29 16:20 39.64313 34.56474 26377 ft 492 kts 81°
2026-04-29 16:20 39.64720 34.60893 26620 ft 494 kts 81°
2026-04-29 16:20 39.65120 34.65317 26861 ft 495 kts 81°
2026-04-29 16:21 39.65518 34.69768 27080 ft 496 kts 81°
2026-04-29 16:21 39.65912 34.74213 27392 ft 495 kts 81°
2026-04-29 16:21 39.66302 34.78646 27704 ft 494 kts 81°
2026-04-29 16:21 39.66692 34.83076 27990 ft 494 kts 81°
2026-04-29 16:22 39.67083 34.87493 28288 ft 493 kts 81°
2026-04-29 16:22 39.67476 34.91907 28579 ft 492 kts 81°
2026-04-29 16:22 39.67865 34.96317 28870 ft 491 kts 80°
2026-04-29 16:22 39.68243 35.00646 29793 ft 473 kts 80°
2026-04-29 16:23 39.68599 35.04802 30910 ft 453 kts 80°
2026-04-29 16:23 39.68936 35.08771 32021 ft 432 kts 80°
2026-04-29 16:23 39.69262 35.12580 32925 ft 419 kts 80°
2026-04-29 16:23 39.69587 35.16319 33302 ft 419 kts 80°
2026-04-29 16:24 39.69922 35.20101 33428 ft 424 kts 80°
2026-04-29 16:24 39.70259 35.23925 33556 ft 429 kts 80°
2026-04-29 16:24 39.70594 35.27794 33683 ft 434 kts 80°
2026-04-29 16:24 39.70927 35.31705 33810 ft 438 kts 81°
2026-04-29 16:25 39.71259 35.35658 33936 ft 442 kts 81°
2026-04-29 16:25 39.71589 35.39596 34063 ft 446 kts 81°
2026-04-29 16:25 39.71925 35.43622 34190 ft 451 kts 81°
2026-04-29 16:25 39.72262 35.47691 34321 ft 455 kts 81°
2026-04-29 16:26 39.72598 35.51788 34436 ft 458 kts 81°
2026-04-29 16:26 39.72939 35.55921 34573 ft 461 kts 81°
2026-04-29 16:26 39.73280 35.60079 34695 ft 465 kts 82°
2026-04-29 16:26 39.73622 35.64266 34822 ft 468 kts 82°
2026-04-29 16:27 39.73966 35.68473 34977 ft 469 kts 82°
2026-04-29 16:27 39.74661 35.76976 35061 ft 476 kts 82°
2026-04-29 16:28 39.75336 35.85361 35063 ft 458 kts 82°
2026-04-29 16:28 39.75976 35.93553 35060 ft 454 kts 82°
2026-04-29 16:29 39.76295 35.97629 35053 ft 453 kts 82°
2026-04-29 16:29 39.76418 35.99190 35044 ft 452 kts 82°
2026-04-29 16:30 39.77054 36.07333 35056 ft 453 kts 82°
2026-04-29 16:30 39.77681 36.15475 35051 ft 452 kts 82°
2026-04-29 16:31 39.78309 36.23614 35048 ft 452 kts 83°
2026-04-29 16:31 39.78635 36.31789 35045 ft 454 kts 88°
2026-04-29 16:32 39.78622 36.39997 35044 ft 454 kts 89°
2026-04-29 16:32 39.78595 36.48143 35075 ft 453 kts 88°
2026-04-29 16:33 39.78706 36.60442 35080 ft 454 kts 88°
2026-04-29 16:33 39.78800 36.68646 35079 ft 454 kts 88°
2026-04-29 16:34 39.78868 36.76846 35090 ft 454 kts 88°
2026-04-29 16:34 39.78960 36.85045 35093 ft 453 kts 84°
2026-04-29 16:35 39.80202 36.93006 35083 ft 448 kts 68°
2026-04-29 16:35 39.82617 37.00570 35111 ft 459 kts 65°
2026-04-29 16:36 39.84715 37.07001 35110 ft 468 kts 65°
2026-04-29 16:36 39.87285 37.14903 35110 ft 477 kts 65°
2026-04-29 16:37 39.89866 37.22894 35105 ft 480 kts 65°
2026-04-29 16:37 39.92010 37.29562 35100 ft 480 kts 65°
2026-04-29 16:38 39.95031 37.38955 35101 ft 481 kts 65°
2026-04-29 16:38 39.97620 37.47007 35102 ft 482 kts 66°
2026-04-29 16:39 40.00204 37.55071 35103 ft 482 kts 66°
2026-04-29 16:39 40.02775 37.63150 35096 ft 482 kts 66°
2026-04-29 16:40 40.05347 37.71245 35096 ft 483 kts 66°
2026-04-29 16:40 40.07902 37.79288 35101 ft 483 kts 66°
2026-04-29 16:41 40.10469 37.87401 35100 ft 483 kts 66°
2026-04-29 16:41 40.13031 37.95522 35100 ft 483 kts 66°
2026-04-29 16:42 40.15584 38.03650 35104 ft 484 kts 66°
2026-04-29 16:42 40.18137 38.11796 35106 ft 484 kts 66°
2026-04-29 16:43 40.20680 38.19948 35116 ft 484 kts 66°
2026-04-29 16:43 40.23223 38.28109 35124 ft 484 kts 66°
2026-04-29 16:44 40.24921 38.33569 35127 ft 484 kts 66°
2026-04-29 16:44 40.28225 38.44219 35127 ft 484 kts 67°
2026-04-29 16:45 40.30748 38.52404 35131 ft 485 kts 67°
2026-04-29 16:45 40.33268 38.60603 35132 ft 485 kts 67°
2026-04-29 16:46 40.35764 38.68755 35139 ft 485 kts 67°
2026-04-29 16:46 40.38284 38.76963 35146 ft 485 kts 67°
2026-04-29 16:47 40.40799 38.85174 35147 ft 485 kts 68°
2026-04-29 16:47 40.43299 38.93407 35149 ft 485 kts 68°
2026-04-29 16:48 40.45796 39.01644 35147 ft 486 kts 68°
2026-04-29 16:48 40.48282 39.09884 35150 ft 485 kts 68°
2026-04-29 16:49 40.50758 39.18126 35151 ft 485 kts 68°
2026-04-29 16:49 40.53232 39.26360 35149 ft 484 kts 68°
2026-04-29 16:50 40.55705 39.34598 35148 ft 484 kts 68°
2026-04-29 16:50 40.58171 39.42839 35153 ft 484 kts 68°
2026-04-29 16:51 40.60622 39.51096 35164 ft 484 kts 69°
2026-04-29 16:51 40.63047 39.59297 35170 ft 483 kts 69°
2026-04-29 16:52 40.65488 39.67548 35176 ft 484 kts 69°
2026-04-29 16:52 40.67534 39.74465 35183 ft 484 kts 69°
2026-04-29 16:53 40.72763 39.92279 35193 ft 484 kts 69°
2026-04-29 16:54 40.75179 40.00552 35194 ft 484 kts 69°
2026-04-29 16:54 40.77594 40.08837 35190 ft 484 kts 69°
2026-04-29 16:55 40.80001 40.17132 35191 ft 485 kts 69°
2026-04-29 16:55 40.82401 40.25452 35184 ft 485 kts 69°
2026-04-29 16:56 40.84799 40.33774 35182 ft 485 kts 69°
2026-04-29 16:56 40.87031 40.41546 35180 ft 485 kts 69°
2026-04-29 16:57 40.89426 40.49877 35178 ft 485 kts 69°
2026-04-29 16:57 40.91802 40.58223 35179 ft 485 kts 70°
2026-04-29 16:58 40.93779 40.65167 35176 ft 485 kts 70°
2026-04-29 16:58 40.96154 40.73537 35177 ft 486 kts 70°
2026-04-29 16:59 40.98525 40.81921 35177 ft 486 kts 70°
2026-04-29 16:59 41.00897 40.90302 35181 ft 487 kts 70°
2026-04-29 17:00 41.03261 40.98707 35181 ft 487 kts 70°
2026-04-29 17:00 41.05614 41.07124 35185 ft 487 kts 70°
2026-04-29 17:01 41.07950 41.15502 35190 ft 488 kts 70°
2026-04-29 17:01 41.10299 41.23945 35193 ft 488 kts 70°
2026-04-29 17:02 41.12470 41.31755 35193 ft 488 kts 70°
2026-04-29 17:02 41.14416 41.38774 35193 ft 488 kts 70°